sat.trackr.live / text

‹ back to catalog

STARLINK-36474

NORAD 67353 · 2026-003V

PAYLOAD ACTIVE UNKNOWN

§ Identity

Operator
Country
US
Launch date
2026-01-09
Launch site
AFETR
Launch vehicle
Mass (kg)
RCS (m²)

Purposes: comms

External: N2YO · Heavens-Above · Gunter

§ Orbital elements

Epoch: 2026-05-25T00:35:18.075264Z

Period
94.27 min
Inclination
43.0015°
Eccentricity
0.0001345
Mean motion
15.27587368 rev/d
Perigee alt
482.1 km
Apogee alt
483.9 km
Semi-major
6,861.2 km
B*
5.9123e-4
RAAN
156.3781°
Arg perigee
268.1503°
Mean anomaly
91.9194°
Rev number
2,049

§ Raw data

STARLINK-364741 67353U 26003V   26145.02451476  .00016046  00000+0  59123-3 0  99912 67353  43.0015 156.3781 0001345 268.1503  91.9194 15.27587368 20498

JSON: /api/v1/satellites/67353 · /tle

For live sub-satellite position, see the globe view (requires WebGL).

§ Visibility from observer

Set your observer location to see the next 7 days of passes ≥ 10°. The values pass through the URL so the page stays shareable.

No JS? Fill the form by hand. The geolocation button needs JavaScript.